FW7213 Weather Reports


Display with metric or nautical units.
time (UTC)temp
F
wind
direction
speed
MPH
gust
MPH
rain 1hr
in
rain 24hr
in
rain mn
in
humidity
%
barometer
mb
20260505183101 79 276 3.0 8.0 0.00 0.00 0.00 61 1015.5
20260505182558 79 251 2.0 10.0 0.00 0.00 0.00 63 1015.5
20260505182058 79 243 2.0 10.0 0.00 0.00 0.00 58 1015.6
20260505181600 78 136 4.0 10.0 0.00 0.00 0.00 62 1015.6
20260505181058 77 138 2.0 7.0 0.00 0.00 0.00 60 1015.5
20260505180557 78 251 3.0 7.0 0.00 0.00 0.00 58 1015.5
20260505175559 78 247 3.0 10.0 0.00 0.00 0.00 61 1015.8
20260505175058 77 221 3.0 10.0 0.00 0.00 0.00 60 1015.8
20260505174609 77 232 4.0 11.0 0.00 0.00 0.00 60 1015.9
20260505174058 77 221 4.0 11.0 0.00 0.00 0.00 65 1016.1
20260505173558 77 259 3.0 10.0 0.00 0.00 0.00 62 1016.1
20260505173100 76 234 4.0 10.0 0.00 0.00 0.00 65 1016.0
20260505172558 76 152 4.0 10.0 0.00 0.00 0.00 66 1016.1
20260505172058 76 131 2.0 9.0 0.00 0.00 0.00 64 1016.0
20260505171604 75 213 4.0 9.0 0.00 0.00 0.00 64 1016.1
20260505171059 75 139 4.0 8.0 0.00 0.00 0.00 67 1016.1
20260505170558 75 131 3.0 9.0 0.00 0.00 0.00 66 1016.2
20260505165558 75 120 3.0 9.0 0.00 0.00 0.00 66 1016.0
20260505165059 74 128 4.0 10.0 0.00 0.00 0.00 64 1016.1
20260505164622 74 157 2.0 10.0 0.00 0.00 0.00 65 1016.0
20260505164100 74 217 3.0 11.0 0.00 0.00 0.00 64 1016.1
20260505163558 74 119 3.0 11.0 0.00 0.00 0.00 65 1016.1
20260505163108 73 255 1.0 9.0 0.00 0.00 0.00 68 1016.2
20260505162559 73 140 3.0 9.0 0.00 0.00 0.00 67 1016.2
20260505162055 73 143 4.0 9.0 0.00 0.00 0.00 68 1016.3
20260505161615 73 95 3.0 9.0 0.00 0.00 0.00 64 1016.1
20260505161058 72 202 2.0 6.0 0.00 0.00 0.00 66 1016.3
20260505160555 72 141 2.0 7.0 0.00 0.00 0.00 66 1016.4
20260505153101 70 139 1.0 7.0 0.00 0.00 0.00 66 1016.5
20260505152558 70 150 4.0 7.0 0.00 0.00 0.00 66 1016.5
20260505152058 70 141 3.0 7.0 0.00 0.00 0.00 70 1016.5
20260505151558 70 83 1.0 7.0 0.00 0.00 0.00 72 1016.5
20260505151102 69 68 0.0 5.0 0.00 0.00 0.00 69 1016.7
20260505150558 69 91 1.0 5.0 0.00 0.00 0.00 72 1016.6
20260505140556 63 134 1.0 4.0 0.00 0.00 0.00 81 1016.6
20260505130111 61 0 0.0 3.0 0.00 0.00 0.00 83 1015.9
20260505124602 59 141 1.0 2.0 0.00 0.00 0.00 84 1015.9
20260505124056 59 131 0.0 1.0 0.00 0.00 0.00 88 1015.7
20260505123558 58 137 0.0 1.0 0.00 0.00 0.00 88 1015.8
20260505123101 56 140 0.0 1.0 0.00 0.00 0.00 90 1015.7
20260505122558 55 139 0.0 1.0 0.00 0.00 0.00 93 1015.7
20260505122058 54 0 0.0 0.0 0.00 0.00 0.00 94 1015.6
20260505121559 53 0 0.0 0.0 0.00 0.00 0.00 96 1015.6
20260505121100 52 0 0.0 0.0 0.00 0.00 0.00 96 1015.5
20260505120559 51 0 0.0 0.0 0.00 0.00 0.00 96 1015.5
20260505120121 51 0 0.0 0.0 0.00 0.00 0.00 96 1015.5
20260505115558 50 0 0.0 0.0 0.00 0.00 0.00 96 1015.5
20260505115102 50 0 0.0 0.0 0.00 0.00 0.00 96 1015.5
20260505114601 50 0 0.0 0.0 0.00 0.00 0.00 96 1015.5
20260505114059 50 0 0.0 0.0 0.00 0.00 0.00 96 1015.5
20260505113558 50 0 0.0 0.0 0.00 0.00 0.00 96 1015.4
20260505113105 50 0 0.0 0.0 0.00 0.00 0.00 96 1015.3
20260505112601 49 0 0.0 0.0 0.00 0.00 0.00 96 1015.3
20260505112058 49 0 0.0 0.0 0.00 0.00 0.00 96 1015.1
20260505111557 49 0 0.0 1.0 0.00 0.00 0.00 96 1015.2
20260505111058 49 0 0.0 1.0 0.00 0.00 0.00 96 1015.2
20260505110557 49 147 0.0 0.0 0.00 0.00 0.00 96 1015.1
20260505110117 49 0 0.0 0.0 0.00 0.00 0.00 96 1015.1
20260505102059 50 0 0.0 0.0 0.00 0.00 0.00 95 1015.0
20260505101603 50 0 0.0 0.0 0.00 0.00 0.00 95 1015.1
20260505101058 50 0 0.0 0.0 0.00 0.00 0.00 95 1015.0
20260505100603 50 0 0.0 0.0 0.00 0.00 0.00 95 1014.9
20260505100058 50 0 0.0 0.0 0.00 0.00 0.00 95 1014.8
20260505095557 51 0 0.0 0.0 0.00 0.00 0.00 94 1014.6
20260505095059 51 0 0.0 0.0 0.00 0.00 0.00 95 1014.7
20260505094557 51 0 0.0 0.0 0.00 0.00 0.00 95 1014.7
20260505094059 51 0 0.0 0.0 0.00 0.00 0.00 94 1014.7
20260505093558 51 0 0.0 0.0 0.00 0.00 0.00 94 1014.6
20260505093107 51 0 0.0 0.0 0.00 0.00 0.00 94 1014.7
20260505092558 51 0 0.0 0.0 0.00 0.00 0.00 94 1014.7
20260505092058 51 0 0.0 0.0 0.00 0.00 0.00 93 1014.7
20260505091600 51 0 0.0 0.0 0.00 0.00 0.00 93 1014.7
20260505091058 51 0 0.0 0.0 0.00 0.00 0.00 93 1014.8
20260505090558 51 0 0.0 0.0 0.00 0.00 0.00 93 1014.8
20260505090056 51 0 0.0 0.0 0.00 0.00 0.00 93 1014.7
20260505085558 51 0 0.0 0.0 0.00 0.00 0.00 92 1014.7
20260505085058 52 0 0.0 0.0 0.00 0.00 0.00 92 1014.7
20260505084558 52 0 0.0 0.0 0.00 0.00 0.00 92 1014.5
20260505084059 52 0 0.0 0.0 0.00 0.00 0.00 92 1014.3
20260505083557 52 0 0.0 0.0 0.00 0.00 0.00 92 1014.2
20260505083058 52 0 0.0 0.0 0.00 0.00 0.00 92 1014.4
20260505082602 52 0 0.0 0.0 0.00 0.00 0.00 92 1014.1
20260505082059 53 0 0.0 0.0 0.00 0.00 0.00 92 1014.1
20260505081613 53 0 0.0 0.0 0.00 0.00 0.00 92 1014.1
20260505081056 53 0 0.0 0.0 0.00 0.00 0.00 92 1014.1
20260505080558 53 0 0.0 0.0 0.00 0.00 0.00 91 1014.0
20260505080107 53 0 0.0 0.0 0.00 0.00 0.00 91 1013.9
20260505075558 53 0 0.0 0.0 0.00 0.00 0.00 91 1014.2
20260505075058 53 0 0.0 0.0 0.00 0.00 0.00 91 1014.2
20260505074559 53 0 0.0 0.0 0.00 0.00 0.00 90 1014.2
20260505074058 54 0 0.0 0.0 0.00 0.00 0.00 90 1014.2
20260505073558 54 0 0.0 0.0 0.00 0.00 0.00 90 1014.4
20260505073058 54 0 0.0 0.0 0.00 0.00 0.00 89 1014.5
20260505072559 54 0 0.0 0.0 0.00 0.00 0.00 89 1014.3
20260505072056 54 0 0.0 0.0 0.00 0.00 0.00 88 1014.4
20260505071610 54 0 0.0 0.0 0.00 0.00 0.00 88 1014.6
20260505071058 54 0 0.0 0.0 0.00 0.00 0.00 87 1014.8
20260505070559 55 0 0.0 0.0 0.00 0.00 0.00 87 1014.8
20260505070110 55 0 0.0 0.0 0.00 0.00 0.00 87 1014.9
20260505065556 55 0 0.0 0.0 0.00 0.00 0.00 86 1015.0
20260505065056 55 0 0.0 0.0 0.00 0.00 0.00 85 1015.0
20260505064559 56 0 0.0 0.0 0.00 0.00 0.00 84 1015.0
20260505064103 56 0 0.0 0.0 0.00 0.00 0.00 82 1014.9
20260505063558 56 0 0.0 0.0 0.00 0.00 0.00 82 1015.0
20260505063056 56 0 0.0 0.0 0.00 0.00 0.00 82 1015.1
20260505062559 56 0 0.0 0.0 0.00 0.00 0.00 82 1015.2
20260505062101 56 0 0.0 0.0 0.00 0.00 0.00 82 1015.2
20260505061601 56 0 0.0 0.0 0.00 0.00 0.00 84 1015.2
20260505061058 57 0 0.0 0.0 0.00 0.00 0.00 83 1015.4
20260505060557 57 0 0.0 1.0 0.00 0.00 0.00 82 1015.5
20260505060059 57 0 0.0 1.0 0.00 0.00 0.00 77 1015.7
20260505055557 57 0 0.0 1.0 0.00 0.00 0.00 78 1015.7
20260505055057 57 0 0.0 1.0 0.00 0.00 0.00 81 1015.7
20260505054559 58 0 0.0 1.0 0.00 0.00 0.00 77 1015.9
20260505054101 58 0 0.0 1.0 0.00 0.00 0.00 76 1015.7
20260505053555 58 0 0.0 1.0 0.00 0.00 0.00 77 1015.6
20260505053105 58 0 0.0 1.0 0.00 0.00 0.00 76 1015.5
20260505052556 58 0 0.0 1.0 0.00 0.00 0.00 80 1015.4
20260505052101 58 141 0.0 1.0 0.00 0.00 0.00 76 1015.5
20260505051557 58 0 0.0 2.0 0.00 0.00 0.00 76 1015.5
20260505051053 58 0 0.0 2.0 0.00 0.00 0.00 76 1015.6
20260505050556 58 148 0.0 1.0 0.00 0.00 0.00 79 1015.7
20260505041557 61 148 0.0 1.0 0.00 0.00 0.00 74 1015.9
20260505041056 61 146 0.0 1.0 0.00 0.00 0.00 71 1015.9
20260505040559 61 0 0.0 1.0 0.00 0.00 0.00 70 1016.0
20260505040105 61 138 0.0 1.0 0.00 0.00 0.00 70 1016.0
20260505035555 61 137 0.0 1.0 0.00 0.00 0.00 70 1016.0
20260505035055 61 142 0.0 2.0 0.00 0.00 0.00 69 1015.9
20260505034557 62 0 0.0 2.0 0.00 0.00 0.00 68 1015.9
20260505034054 62 143 1.0 2.0 0.00 0.00 0.00 68 1016.0
20260505033555 62 144 0.0 2.0 0.00 0.00 0.00 67 1015.9
20260505033100 62 143 0.0 2.0 0.00 0.00 0.00 67 1015.9
20260505032555 62 155 1.0 2.0 0.00 0.00 0.00 67 1015.9
20260505032054 63 139 0.0 2.0 0.00 0.00 0.00 66 1016.0
20260505031559 63 0 1.0 2.0 0.00 0.00 0.00 66 1016.0
20260505031055 63 143 0.0 1.0 0.00 0.00 0.00 66 1016.1
20260505030607 63 142 0.0 2.0 0.00 0.00 0.00 65 1015.9
20260505025559 63 155 1.0 2.0 0.00 0.00 0.00 65 1016.0
20260505025058 63 0 0.0 3.0 0.00 0.00 0.00 65 1016.0
20260505024558 64 137 0.0 3.0 0.00 0.00 0.00 64 1015.9
20260505024055 64 148 0.0 2.0 0.00 0.00 0.00 64 1015.8
20260505023558 64 147 0.0 2.0 0.00 0.00 0.00 64 1015.9
20260505023102 64 0 0.0 1.0 0.00 0.00 0.00 63 1015.8
20260505022555 64 0 0.0 2.0 0.00 0.00 0.00 63 1016.0
20260505022059 65 145 1.0 3.0 0.00 0.00 0.00 62 1015.7
20260505021602 65 160 1.0 3.0 0.00 0.00 0.00 62 1015.7
20260505021058 65 0 1.0 3.0 0.00 0.00 0.00 64 1015.7
20260505020558 66 173 2.0 3.0 0.00 0.00 0.00 61 1015.7
20260505020059 66 124 1.0 3.0 0.00 0.00 0.00 60 1015.7
20260505015559 66 172 1.0 2.0 0.00 0.00 0.00 60 1015.8
20260505015102 66 161 1.0 5.0 0.00 0.00 0.00 59 1015.7
20260505014600 67 152 0.0 5.0 0.00 0.00 0.00 59 1015.7
20260505014058 67 147 1.0 4.0 0.00 0.00 0.00 58 1015.6
20260505013557 67 155 1.0 4.0 0.00 0.00 0.00 60 1015.7
20260505013101 68 140 1.0 4.0 0.00 0.00 0.00 57 1015.7
20260505012600 68 166 1.0 10.0 0.00 0.00 0.00 56 1015.5
20260505012100 68 166 2.0 10.0 0.00 0.00 0.00 56 1015.6
20260505011559 69 181 2.0 10.0 0.00 0.00 0.00 55 1015.4
20260505011059 69 136 2.0 7.0 0.00 0.00 0.00 55 1015.5
20260505010559 69 140 1.0 7.0 0.00 0.00 0.00 54 1015.5
20260505010104 70 190 2.0 7.0 0.00 0.00 0.00 54 1015.4
20260505005558 70 217 2.0 7.0 0.00 0.00 0.00 56 1015.3
20260505005059 70 155 2.0 7.0 0.00 0.00 0.00 52 1015.3
20260505004559 71 210 1.0 6.0 0.00 0.00 0.00 51 1015.2
20260505004058 71 137 2.0 6.0 0.00 0.00 0.00 51 1015.3
20260505003602 71 173 2.0 6.0 0.00 0.00 0.00 50 1015.2
20260505003104 72 182 1.0 6.0 0.00 0.00 0.00 49 1015.0
20260505002558 72 265 2.0 9.0 0.00 0.00 0.00 49 1015.1
20260505002058 72 166 1.0 9.0 0.00 0.00 0.00 49 1014.9
20260505001559 72 166 1.0 5.0 0.00 0.00 0.00 53 1014.9
20260505001058 72 162 1.0 2.0 0.00 0.00 0.00 56 1014.7
20260505000558 74 155 0.0 1.0 0.00 0.00 0.00 52 1014.6
20260505000112 75 0 0.0 3.0 0.00 0.00 0.00 52 1014.5
20260504235558 76 0 0.0 3.0 0.00 0.00 0.00 46 1014.5
20260504235058 76 218 0.0 1.0 0.00 0.00 0.00 46 1014.5
20260504234556 77 0 0.0 1.0 0.00 0.00 0.00 40 1014.5
20260504234057 77 0 0.0 3.0 0.00 0.00 0.00 42 1014.4
20260504233558 77 231 0.0 3.0 0.00 0.00 0.00 41 1014.7
20260504233102 78 219 1.0 3.0 0.00 0.00 0.00 38 1014.6
20260504232558 78 203 1.0 3.0 0.00 0.00 0.00 38 1014.6
20260504232055 78 282 1.0 4.0 0.00 0.00 0.00 40 1014.6
20260504231558 79 260 1.0 4.0 0.00 0.00 0.00 36 1014.7
20260504231058 79 295 0.0 2.0 0.00 0.00 0.00 40 1014.7
20260504230558 80 246 1.0 3.0 0.00 0.00 0.00 35 1014.6
20260504230057 80 248 0.0 4.0 0.00 0.00 0.00 35 1014.7
20260504225602 80 236 1.0 4.0 0.00 0.00 0.00 38 1014.6
20260504225100 81 243 1.0 4.0 0.00 0.00 0.00 39 1014.6
20260504224600 81 355 0.0 5.0 0.00 0.00 0.00 38 1014.6
20260504224058 81 151 0.0 5.0 0.00 0.00 0.00 35 1014.5
20260504223558 81 146 2.0 5.0 0.00 0.00 0.00 35 1014.6
20260504223058 82 127 1.0 3.0 0.00 0.00 0.00 38 1014.6
20260504222559 81 235 0.0 3.0 0.00 0.00 0.00 38 1014.7
20260504222057 81 0 0.0 4.0 0.00 0.00 0.00 36 1014.7
20260504221557 81 159 1.0 4.0 0.00 0.00 0.00 34 1014.6
20260504221059 81 198 1.0 4.0 0.00 0.00 0.00 36 1014.5
20260504220555 80 301 1.0 5.0 0.00 0.00 0.00 37 1014.6
20260504220115 80 0 1.0 5.0 0.00 0.00 0.00 34 1014.7
20260504215558 80 166 2.0 6.0 0.00 0.00 0.00 38 1014.7
20260504215101 80 151 2.0 6.0 0.00 0.00 0.00 34 1014.7
20260504214600 81 136 2.0 6.0 0.00 0.00 0.00 34 1014.7
20260504214058 81 134 2.0 5.0 0.00 0.00 0.00 34 1014.7
20260504213558 81 158 2.0 4.0 0.00 0.00 0.00 33 1014.7
20260504213102 81 165 2.0 4.0 0.00 0.00 0.00 37 1014.7
20260504212558 81 135 1.0 4.0 0.00 0.00 0.00 37 1014.6
20260504212058 81 0 1.0 5.0 0.00 0.00 0.00 36 1014.7
20260504211557 81 131 1.0 5.0 0.00 0.00 0.00 37 1014.8
20260504211059 81 184 1.0 5.0 0.00 0.00 0.00 38 1014.7
20260504210558 81 236 1.0 6.0 0.00 0.00 0.00 40 1014.6
20260504210056 81 252 2.0 6.0 0.00 0.00 0.00 35 1014.7
20260504205559 81 120 2.0 6.0 0.00 0.00 0.00 39 1014.7
20260504205059 81 113 1.0 6.0 0.00 0.00 0.00 38 1014.9
20260504204559 80 46 1.0 4.0 0.00 0.00 0.00 38 1014.9
20260504204058 81 115 1.0 4.0 0.00 0.00 0.00 37 1014.9
20260504203558 81 200 2.0 6.0 0.00 0.00 0.00 38 1015.1
20260504203057 81 0 1.0 6.0 0.00 0.00 0.00 40 1014.9
20260504202558 81 139 2.0 4.0 0.00 0.00 0.00 35 1015.1
20260504202058 81 179 1.0 4.0 0.00 0.00 0.00 36 1015.1
20260504201559 80 233 2.0 7.0 0.00 0.00 0.00 35 1015.2
20260504201058 80 115 2.0 8.0 0.00 0.00 0.00 38 1015.3
20260504200558 79 102 1.0 8.0 0.00 0.00 0.00 39 1015.3
20260504200101 79 110 1.0 8.0 0.00 0.00 0.00 38 1015.5
20260504195557 79 113 3.0 7.0 0.00 0.00 0.00 37 1015.6
20260504195059 79 150 3.0 7.0 0.00 0.00 0.00 37 1015.8
20260504194603 79 143 3.0 6.0 0.00 0.00 0.00 41 1015.9
20260504194059 79 150 3.0 6.0 0.00 0.00 0.00 39 1015.9
20260504193559 79 46 2.0 8.0 0.00 0.00 0.00 42 1016.0
20260504193059 80 106 2.0 8.0 0.00 0.00 0.00 40 1016.2
20260504192558 80 175 1.0 5.0 0.00 0.00 0.00 38 1016.1
20260504192058 80 139 1.0 5.0 0.00 0.00 0.00 39 1016.3
20260504191605 80 210 0.0 5.0 0.00 0.00 0.00 39 1016.4
20260504191058 80 261 2.0 5.0 0.00 0.00 0.00 41 1016.4
20260504190559 80 0 1.0 4.0 0.00 0.00 0.00 38 1016.5
20260504190110 79 236 0.0 5.0 0.00 0.00 0.00 37 1016.5
20260504185557 79 322 2.0 6.0 0.00 0.00 0.00 40 1016.7
20260504185058 79 139 1.0 6.0 0.00 0.00 0.00 40 1016.7
20260504184617 78 153 2.0 6.0 0.00 0.00 0.00 39 1016.7
20260504184058 78 168 1.0 7.0 0.00 0.00 0.00 41 1016.9
20260504183559 77 231 3.0 7.0 0.00 0.00 0.00 37 1017.0